Time,TemperatureF,DewpointF,PressureIn,WindDirection,WindDirectionDegrees,WindSpeedMPH,WindSpeedGustMPH,Humidity,HourlyPrecipIn,Conditions,Clouds,dailyrainin,SoftwareType,DateUTC
2013-07-06 00:01:00,73.1,68.7,30.03,SSW,203,2.0,5.0,86,0.00,,OVC070,0.00,VWS V13.01,2013-07-06 04:01:00,
2013-07-06 00:06:00,73.1,69.0,30.03,SW,217,3.0,4.0,87,0.00,,FEW060,0.00,VWS V13.01,2013-07-06 04:06:00,
2013-07-06 00:11:00,73.0,68.9,30.03,SW,218,3.0,3.0,87,0.00,,FEW060,0.00,VWS V13.01,2013-07-06 04:11:00,
2013-07-06 00:16:00,73.1,69.3,30.03,SW,227,3.0,5.0,88,0.00,,FEW060,0.00,VWS V13.01,2013-07-06 04:16:00,
2013-07-06 00:21:00,74.0,68.5,30.03,SW,232,6.0,8.0,83,0.00,,FEW060,0.00,VWS V13.01,2013-07-06 04:21:00,
2013-07-06 00:27:00,74.5,68.7,30.03,SW,224,7.0,8.0,82,0.00,,FEW060,0.00,VWS V13.01,2013-07-06 04:27:00,
2013-07-06 00:32:00,74.5,68.3,30.03,SW,230,5.0,8.0,81,0.00,,FEW060,0.00,VWS V13.01,2013-07-06 04:32:00,
2013-07-06 00:37:00,74.3,68.4,30.03,SW,226,6.0,7.0,82,0.00,,FEW060,0.00,VWS V13.01,2013-07-06 04:37:00,
2013-07-06 00:42:00,74.1,68.6,30.03,SW,227,4.0,8.0,83,0.00,,FEW060,0.00,VWS V13.01,2013-07-06 04:42:00,
2013-07-06 00:47:00,73.8,69.0,30.03,SW,229,4.0,6.0,85,0.00,,FEW060,0.00,VWS V13.01,2013-07-06 04:47:00,
2013-07-06 00:52:00,73.5,68.4,30.03,SW,231,4.0,6.0,84,0.00,,FEW060,0.00,VWS V13.01,2013-07-06 04:52:00,
2013-07-06 00:57:00,73.4,69.0,30.03,SW,232,5.0,5.0,86,0.00,,FEW060,0.00,VWS V13.01,2013-07-06 04:57:00,
2013-07-06 01:02:00,73.2,68.8,30.03,SW,228,3.0,5.0,86,0.00,,FEW060,0.00,VWS V13.01,2013-07-06 05:02:00,
2013-07-06 01:07:00,72.9,68.8,30.03,SW,220,3.0,4.0,87,0.00,,CLR,0.00,VWS V13.01,2013-07-06 05:07:00,
2013-07-06 01:12:00,72.7,68.9,30.03,SW,214,3.0,4.0,88,0.00,,CLR,0.00,VWS V13.01,2013-07-06 05:12:00,
2013-07-06 01:17:00,72.4,68.3,30.03,SW,214,3.0,4.0,87,0.00,,CLR,0.00,VWS V13.01,2013-07-06 05:17:00,
2013-07-06 01:22:00,72.4,69.0,30.03,SW,214,3.0,3.0,89,0.00,,CLR,0.00,VWS V13.01,2013-07-06 05:22:00,
2013-07-06 01:27:00,72.2,68.1,30.03,SW,214,4.0,4.0,87,0.00,,CLR,0.00,VWS V13.01,2013-07-06 05:27:00,
2013-07-06 01:32:00,72.2,68.4,30.03,SW,230,3.0,4.0,88,0.00,,CLR,0.00,VWS V13.01,2013-07-06 05:32:00,
2013-07-06 01:37:00,72.3,68.6,30.03,SW,230,1.0,3.0,88,0.00,,CLR,0.00,VWS V13.01,2013-07-06 05:37:00,
2013-07-06 01:42:00,72.4,68.3,30.03,SW,230,2.0,3.0,87,0.00,,CLR,0.00,VWS V13.01,2013-07-06 05:42:00,
2013-07-06 01:47:00,72.3,68.2,30.03,SW,230,2.0,3.0,87,0.00,,CLR,0.00,VWS V13.01,2013-07-06 05:47:00,
2013-07-06 01:52:00,72.3,68.2,30.03,SW,230,3.0,4.0,87,0.00,,CLR,0.00,VWS V13.01,2013-07-06 05:52:00,
2013-07-06 01:57:00,72.4,68.3,30.03,SW,230,3.0,4.0,87,0.00,,CLR,0.00,VWS V13.01,2013-07-06 05:57:00,
2013-07-06 02:02:00,72.4,68.3,30.03,SW,230,3.0,4.0,87,0.00,,CLR,0.00,VWS V13.01,2013-07-06 06:02:00,
2013-07-06 02:07:00,72.4,68.3,30.03,SW,230,1.0,4.0,87,0.00,,CLR,0.00,VWS V13.01,2013-07-06 06:07:00,
2013-07-06 02:12:00,72.2,67.8,30.03,SW,230,1.0,3.0,86,0.00,,CLR,0.00,VWS V13.01,2013-07-06 06:12:00,
2013-07-06 02:17:00,72.2,68.4,30.03,SW,217,3.0,3.0,88,0.00,,CLR,0.00,VWS V13.01,2013-07-06 06:17:00,
2013-07-06 02:22:00,72.1,68.3,30.03,SW,217,1.0,4.0,88,0.00,,CLR,0.00,VWS V13.01,2013-07-06 06:22:00,
2013-07-06 02:28:00,71.9,67.8,30.03,SW,217,2.0,3.0,87,0.00,,CLR,0.00,VWS V13.01,2013-07-06 06:28:00,
2013-07-06 02:33:00,71.9,68.2,30.03,SW,217,0.0,2.0,88,0.00,,CLR,0.00,VWS V13.01,2013-07-06 06:33:00,
2013-07-06 02:38:00,71.6,67.2,30.03,SW,217,0.0,0.0,86,0.00,,CLR,0.00,VWS V13.01,2013-07-06 06:38:00,
2013-07-06 02:43:00,71.1,66.7,30.03,SW,217,0.0,0.0,86,0.00,,CLR,0.00,VWS V13.01,2013-07-06 06:43:00,
2013-07-06 02:48:00,70.8,67.4,30.03,South,184,0.0,0.0,89,0.00,,CLR,0.00,VWS V13.01,2013-07-06 06:48:00,
2013-07-06 02:53:00,71.0,67.6,30.03,SSE,161,2.0,4.0,89,0.00,,CLR,0.00,VWS V13.01,2013-07-06 06:53:00,
2013-07-06 02:58:00,71.0,67.6,30.03,SSW,213,0.0,3.0,89,0.00,,CLR,0.00,VWS V13.01,2013-07-06 06:58:00,
2013-07-06 03:03:00,70.6,66.6,30.03,SW,218,0.0,2.0,87,0.00,,CLR,0.00,VWS V13.01,2013-07-06 07:03:00,
2013-07-06 03:08:00,70.1,66.4,30.03,SW,219,0.0,1.0,88,0.00,,CLR,0.00,VWS V13.01,2013-07-06 07:08:00,
2013-07-06 03:13:00,69.5,65.8,30.04,NW,311,1.0,3.0,88,0.00,,CLR,0.00,VWS V13.01,2013-07-06 07:13:00,
2013-07-06 03:18:00,69.0,65.3,30.04,NW,311,0.0,2.0,88,0.00,,CLR,0.00,VWS V13.01,2013-07-06 07:18:00,
2013-07-06 03:23:00,68.5,64.8,30.04,NW,311,1.0,2.0,88,0.00,,CLR,0.00,VWS V13.01,2013-07-06 07:23:00,
2013-07-06 03:28:00,68.0,64.6,30.04,NW,311,0.0,2.0,89,0.00,,CLR,0.00,VWS V13.01,2013-07-06 07:28:00,
2013-07-06 03:33:00,67.6,64.2,30.04,NW,305,1.0,2.0,89,0.00,,CLR,0.00,VWS V13.01,2013-07-06 07:33:00,
2013-07-06 03:38:00,67.5,64.2,30.04,NW,309,0.0,2.0,89,0.00,,CLR,0.00,VWS V13.01,2013-07-06 07:38:00,
2013-07-06 03:43:00,67.4,64.1,30.04,NW,309,1.0,2.0,89,0.00,,CLR,0.00,VWS V13.01,2013-07-06 07:43:00,
2013-07-06 03:48:00,67.2,63.8,30.04,NW,309,0.0,2.0,89,0.00,,CLR,0.00,VWS V13.01,2013-07-06 07:48:00,
2013-07-06 03:53:00,67.1,63.8,30.04,WNW,300,0.0,2.0,89,0.00,,CLR,0.00,VWS V13.01,2013-07-06 07:53:00,
2013-07-06 03:58:00,67.2,63.8,30.04,WNW,300,0.0,1.0,89,0.00,,CLR,0.00,VWS V13.01,2013-07-06 07:58:00,
2013-07-06 04:03:00,67.2,63.8,30.04,WNW,300,0.0,0.0,89,0.00,,CLR,0.00,VWS V13.01,2013-07-06 08:03:00,
2013-07-06 04:08:00,67.1,63.8,30.04,WNW,300,0.0,1.0,89,0.00,,CLR,0.00,VWS V13.01,2013-07-06 08:08:00,
2013-07-06 04:13:00,67.1,63.8,30.04,WNW,300,0.0,0.0,89,0.00,,CLR,0.00,VWS V13.01,2013-07-06 08:13:00,
2013-07-06 04:18:00,67.1,63.8,30.04,WNW,300,0.0,1.0,89,0.00,,CLR,0.00,VWS V13.01,2013-07-06 08:18:00,
2013-07-06 04:23:00,67.3,64.3,30.04,WSW,248,2.0,3.0,90,0.00,,CLR,0.00,VWS V13.01,2013-07-06 08:23:00,
2013-07-06 04:28:00,68.2,64.8,30.04,SW,232,1.0,3.0,89,0.00,,CLR,0.00,VWS V13.01,2013-07-06 08:28:00,
2013-07-06 04:33:00,69.1,65.7,30.04,SW,226,2.0,3.0,89,0.00,,CLR,0.00,VWS V13.01,2013-07-06 08:33:00,
2013-07-06 04:39:00,69.4,65.0,30.04,West,263,2.0,4.0,86,0.00,,CLR,0.00,VWS V13.01,2013-07-06 08:39:00,
2013-07-06 04:44:00,69.5,64.8,30.04,WSW,244,4.0,4.0,85,0.00,,CLR,0.00,VWS V13.01,2013-07-06 08:44:00,
2013-07-06 04:49:00,69.6,64.9,30.04,WSW,244,2.0,4.0,85,0.00,,CLR,0.00,VWS V13.01,2013-07-06 08:49:00,
2013-07-06 04:54:00,69.7,64.7,30.04,WSW,244,1.0,3.0,84,0.00,,CLR,0.00,VWS V13.01,2013-07-06 08:54:00,
2013-07-06 04:59:00,69.5,64.5,30.04,WSW,244,0.0,2.0,84,0.00,,CLR,0.00,VWS V13.01,2013-07-06 08:59:00,
2013-07-06 05:04:00,69.3,64.3,30.04,WSW,244,0.0,0.0,84,0.00,,CLR,0.00,VWS V13.01,2013-07-06 09:04:00,
2013-07-06 05:09:00,69.1,64.4,30.04,WSW,244,0.0,0.0,85,0.00,,CLR,0.00,VWS V13.01,2013-07-06 09:09:00,
2013-07-06 05:14:00,68.8,64.1,30.04,WSW,244,0.0,0.0,85,0.00,,CLR,0.00,VWS V13.01,2013-07-06 09:14:00,
2013-07-06 05:19:00,68.6,64.6,30.05,SW,225,2.0,2.0,87,0.00,,CLR,0.00,VWS V13.01,2013-07-06 09:19:00,
2013-07-06 05:24:00,68.9,65.2,30.05,SSW,197,2.0,4.0,88,0.00,,CLR,0.00,VWS V13.01,2013-07-06 09:24:00,
2013-07-06 05:29:00,69.4,65.0,30.05,SSW,197,2.0,4.0,86,0.00,,CLR,0.00,VWS V13.01,2013-07-06 09:29:00,
2013-07-06 05:34:00,69.8,65.1,30.05,SSW,197,2.0,3.0,85,0.00,,CLR,0.00,VWS V13.01,2013-07-06 09:34:00,
2013-07-06 05:39:00,69.9,65.2,30.05,SSW,197,3.0,4.0,85,0.00,,CLR,0.00,VWS V13.01,2013-07-06 09:39:00,
2013-07-06 05:44:00,70.0,65.3,30.05,SSW,202,3.0,4.0,85,0.00,,CLR,0.00,VWS V13.01,2013-07-06 09:44:00,
2013-07-06 05:49:00,70.1,65.4,30.05,SSW,205,3.0,4.0,85,0.00,,CLR,0.00,VWS V13.01,2013-07-06 09:49:00,
2013-07-06 05:54:00,70.0,65.6,30.05,SSW,207,3.0,4.0,86,0.00,,CLR,0.00,VWS V13.01,2013-07-06 09:54:00,
2013-07-06 05:59:00,70.0,65.6,30.05,SW,215,3.0,4.0,86,0.00,,CLR,0.00,VWS V13.01,2013-07-06 09:59:00,
2013-07-06 06:04:00,69.9,65.5,30.05,SW,224,3.0,4.0,86,0.00,,CLR,0.00,VWS V13.01,2013-07-06 10:04:00,
2013-07-06 06:09:00,69.8,65.8,30.06,SSW,198,3.0,5.0,87,0.00,,CLR,0.00,VWS V13.01,2013-07-06 10:09:00,
2013-07-06 06:14:00,69.7,65.0,30.06,SSW,199,4.0,5.0,85,0.00,,CLR,0.00,VWS V13.01,2013-07-06 10:14:00,
2013-07-06 06:19:00,69.7,65.7,30.06,SSW,199,3.0,4.0,87,0.00,,CLR,0.00,VWS V13.01,2013-07-06 10:19:00,
2013-07-06 06:24:00,69.5,65.5,30.06,SSW,200,3.0,4.0,87,0.00,,CLR,0.00,VWS V13.01,2013-07-06 10:24:00,
2013-07-06 06:29:00,69.4,65.4,30.07,SSW,201,2.0,5.0,87,0.00,,CLR,0.00,VWS V13.01,2013-07-06 10:29:00,
2013-07-06 06:34:00,69.3,64.9,30.07,SSW,203,3.0,4.0,86,0.00,,CLR,0.00,VWS V13.01,2013-07-06 10:34:00,
2013-07-06 06:39:00,69.2,64.8,30.06,SSW,212,3.0,4.0,86,0.00,,CLR,0.00,VWS V13.01,2013-07-06 10:39:00,
2013-07-06 06:44:00,69.2,65.5,30.06,SSW,212,3.0,4.0,88,0.00,,CLR,0.00,VWS V13.01,2013-07-06 10:44:00,
2013-07-06 06:50:00,69.2,65.5,30.06,SSW,212,2.0,3.0,88,0.00,,CLR,0.00,VWS V13.01,2013-07-06 10:50:00,
2013-07-06 06:54:00,69.1,65.4,30.06,SW,214,2.0,3.0,88,0.00,,CLR,0.00,VWS V13.01,2013-07-06 10:54:00,
2013-07-06 06:59:00,68.9,65.2,30.06,SW,216,3.0,3.0,88,0.00,,CLR,0.00,VWS V13.01,2013-07-06 10:59:00,
2013-07-06 07:04:00,68.8,64.4,30.06,SW,217,3.0,4.0,86,0.00,,CLR,0.00,VWS V13.01,2013-07-06 11:04:00,
2013-07-06 07:10:00,68.7,64.3,30.06,SW,217,2.0,3.0,86,0.00,,CLR,0.00,VWS V13.01,2013-07-06 11:10:00,
2013-07-06 07:15:00,68.6,64.2,30.06,SW,217,1.0,3.0,86,0.00,,CLR,0.00,VWS V13.01,2013-07-06 11:15:00,
2013-07-06 07:20:00,68.6,63.9,30.06,SW,217,1.0,2.0,85,0.00,,CLR,0.00,VWS V13.01,2013-07-06 11:20:00,
2013-07-06 07:25:00,68.5,63.8,30.06,SW,217,1.0,3.0,85,0.00,,CLR,0.00,VWS V13.01,2013-07-06 11:25:00,
2013-07-06 07:30:00,68.3,64.0,30.06,SW,225,3.0,4.0,86,0.00,,CLR,0.00,VWS V13.01,2013-07-06 11:30:00,
2013-07-06 07:35:00,68.2,63.9,30.06,SW,225,2.0,4.0,86,0.00,,CLR,0.00,VWS V13.01,2013-07-06 11:35:00,
2013-07-06 07:40:00,68.3,64.3,30.06,SW,225,2.0,3.0,87,0.00,,CLR,0.00,VWS V13.01,2013-07-06 11:40:00,
2013-07-06 07:45:00,68.3,64.0,30.06,SW,225,2.0,2.0,86,0.00,,CLR,0.00,VWS V13.01,2013-07-06 11:45:00,
2013-07-06 07:50:00,68.4,64.4,30.06,SW,225,2.0,3.0,87,0.00,,CLR,0.00,VWS V13.01,2013-07-06 11:50:00,
2013-07-06 07:55:00,68.5,64.2,30.06,SW,225,2.0,3.0,86,0.00,,CLR,0.00,VWS V13.01,2013-07-06 11:55:00,
2013-07-06 08:00:00,68.8,64.4,30.06,WSW,238,2.0,4.0,86,0.00,,CLR,0.00,VWS V13.01,2013-07-06 12:00:00,
2013-07-06 08:05:00,69.0,65.0,30.06,SW,221,1.0,3.0,87,0.00,,CLR,0.00,VWS V13.01,2013-07-06 12:05:00,
2013-07-06 08:10:00,69.1,64.4,30.06,SW,221,1.0,3.0,85,0.00,,CLR,0.00,VWS V13.01,2013-07-06 12:10:00,
2013-07-06 08:15:00,69.2,64.5,30.06,SW,221,2.0,3.0,85,0.00,,CLR,0.00,VWS V13.01,2013-07-06 12:15:00,
2013-07-06 08:20:00,69.3,64.9,30.06,SW,221,3.0,3.0,86,0.00,,CLR,0.00,VWS V13.01,2013-07-06 12:20:00,
2013-07-06 08:25:00,69.4,65.0,30.06,SW,221,2.0,3.0,86,0.00,,CLR,0.00,VWS V13.01,2013-07-06 12:25:00,
2013-07-06 08:30:00,69.5,65.1,30.06,SW,221,2.0,3.0,86,0.00,,CLR,0.00,VWS V13.01,2013-07-06 12:30:00,
2013-07-06 08:35:00,69.6,65.2,30.06,SW,221,2.0,3.0,86,0.00,,CLR,0.00,VWS V13.01,2013-07-06 12:35:00,
2013-07-06 08:40:00,69.8,65.1,30.06,SW,221,0.0,2.0,85,0.00,,CLR,0.00,VWS V13.01,2013-07-06 12:40:00,
2013-07-06 08:45:00,70.1,65.7,30.06,SW,221,0.0,1.0,86,0.00,,CLR,0.00,VWS V13.01,2013-07-06 12:45:00,
2013-07-06 08:50:00,70.5,65.8,30.05,SW,221,1.0,2.0,85,0.00,,CLR,0.00,VWS V13.01,2013-07-06 12:50:00,
2013-07-06 08:55:00,70.8,66.1,30.05,SW,221,2.0,2.0,85,0.00,,CLR,0.00,VWS V13.01,2013-07-06 12:55:00,
2013-07-06 09:00:00,70.9,66.2,30.06,SW,221,2.0,2.0,85,0.00,,CLR,0.00,VWS V13.01,2013-07-06 13:00:00,
2013-07-06 09:05:00,71.2,66.8,30.05,South,173,2.0,4.0,86,0.00,,CLR,0.00,VWS V13.01,2013-07-06 13:05:00,
2013-07-06 09:10:00,71.4,66.7,30.06,SSE,164,3.0,4.0,85,0.00,,CLR,0.00,VWS V13.01,2013-07-06 13:10:00,
2013-07-06 09:15:00,71.5,67.1,30.05,SSE,163,3.0,4.0,86,0.00,,CLR,0.00,VWS V13.01,2013-07-06 13:15:00,
2013-07-06 09:20:00,71.7,67.3,30.06,SSE,160,4.0,5.0,86,0.00,,CLR,0.00,VWS V13.01,2013-07-06 13:20:00,
2013-07-06 09:25:00,71.9,67.5,30.05,SE,146,5.0,5.0,86,0.00,,CLR,0.00,VWS V13.01,2013-07-06 13:25:00,
2013-07-06 09:31:00,71.9,67.5,30.06,SE,146,4.0,6.0,86,0.00,,CLR,0.00,VWS V13.01,2013-07-06 13:31:00,
2013-07-06 09:36:00,71.8,67.4,30.06,SE,141,4.0,6.0,86,0.00,,CLR,0.00,VWS V13.01,2013-07-06 13:36:00,
2013-07-06 09:41:00,71.9,67.5,30.05,SE,141,5.0,6.0,86,0.00,,CLR,0.00,VWS V13.01,2013-07-06 13:41:00,
2013-07-06 09:46:00,71.9,67.2,30.05,SE,141,4.0,5.0,85,0.00,,CLR,0.00,VWS V13.01,2013-07-06 13:46:00,
2013-07-06 09:51:00,72.1,67.7,30.05,SE,141,5.0,6.0,86,0.00,,CLR,0.00,VWS V13.01,2013-07-06 13:51:00,
2013-07-06 09:56:00,72.2,67.4,30.05,SE,142,4.0,6.0,85,0.00,,CLR,0.00,VWS V13.01,2013-07-06 13:56:00,
2013-07-06 10:01:00,72.4,68.0,30.05,SE,142,3.0,5.0,86,0.00,,CLR,0.00,VWS V13.01,2013-07-06 14:01:00,
2013-07-06 10:06:00,72.7,67.6,30.05,SE,142,4.0,5.0,84,0.00,,CLR,0.00,VWS V13.01,2013-07-06 14:06:00,
2013-07-06 10:11:00,72.8,67.7,30.05,SSE,155,4.0,5.0,84,0.00,,CLR,0.00,VWS V13.01,2013-07-06 14:11:00,
2013-07-06 10:16:00,72.6,68.2,30.05,SSE,155,4.0,6.0,86,0.00,,CLR,0.00,VWS V13.01,2013-07-06 14:16:00,
2013-07-06 10:21:00,72.7,68.6,30.05,SSE,160,4.0,5.0,87,0.00,,CLR,0.00,VWS V13.01,2013-07-06 14:21:00,
2013-07-06 10:26:00,72.4,68.7,30.06,SSE,165,4.0,6.0,88,0.00,,CLR,0.00,VWS V13.01,2013-07-06 14:26:00,
2013-07-06 10:31:00,72.3,68.9,30.05,SSE,163,4.0,8.0,89,0.00,,CLR,0.00,VWS V13.01,2013-07-06 14:31:00,
2013-07-06 10:36:00,72.2,69.1,30.05,SSE,161,4.0,7.0,90,0.00,,CLR,0.00,VWS V13.01,2013-07-06 14:36:00,
2013-07-06 10:41:00,72.2,69.1,30.05,SSE,157,6.0,7.0,90,0.00,,CLR,0.00,VWS V13.01,2013-07-06 14:41:00,
2013-07-06 10:46:00,72.2,69.4,30.05,SSE,155,6.0,7.0,91,0.00,,CLR,0.00,VWS V13.01,2013-07-06 14:46:00,
2013-07-06 10:51:00,72.2,69.4,30.05,SSE,159,6.0,8.0,91,0.00,,CLR,0.00,VWS V13.01,2013-07-06 14:51:00,
2013-07-06 10:56:00,72.2,69.4,30.05,SSE,163,6.0,7.0,91,0.00,,CLR,0.00,VWS V13.01,2013-07-06 14:56:00,
2013-07-06 11:01:00,72.4,69.9,30.05,SSE,158,5.0,6.0,92,0.00,,CLR,0.00,VWS V13.01,2013-07-06 15:01:00,
2013-07-06 11:06:00,72.7,70.2,30.05,SSE,161,6.0,7.0,92,0.00,,CLR,0.00,VWS V13.01,2013-07-06 15:06:00,
2013-07-06 11:11:00,72.8,70.3,30.05,South,171,6.0,6.0,92,0.00,,CLR,0.00,VWS V13.01,2013-07-06 15:11:00,
2013-07-06 11:16:00,72.7,70.2,30.06,South,178,7.0,8.0,92,0.00,,CLR,0.00,VWS V13.01,2013-07-06 15:16:00,
2013-07-06 11:21:00,72.5,70.1,30.05,South,181,6.0,8.0,92,0.00,,CLR,0.00,VWS V13.01,2013-07-06 15:21:00,
2013-07-06 11:26:00,72.4,69.9,30.05,SSE,158,5.0,9.0,92,0.00,,CLR,0.00,VWS V13.01,2013-07-06 15:26:00,
2013-07-06 11:31:00,72.5,70.1,30.05,South,173,7.0,9.0,92,0.00,,CLR,0.00,VWS V13.01,2013-07-06 15:31:00,
2013-07-06 11:37:00,72.6,70.5,30.05,SSE,157,5.0,9.0,93,0.00,,CLR,0.00,VWS V13.01,2013-07-06 15:37:00,
2013-07-06 11:42:00,72.8,70.7,30.05,SSE,167,6.0,9.0,93,0.00,,CLR,0.00,VWS V13.01,2013-07-06 15:42:00,
2013-07-06 11:47:00,72.9,70.4,30.05,SSE,157,7.0,9.0,92,0.00,,CLR,0.00,VWS V13.01,2013-07-06 15:47:00,
2013-07-06 11:52:00,72.9,70.4,30.05,SSE,165,7.0,9.0,92,0.00,,CLR,0.00,VWS V13.01,2013-07-06 15:52:00,
2013-07-06 11:57:00,72.9,70.4,30.05,SSE,164,7.0,10.0,92,0.00,,CLR,0.00,VWS V13.01,2013-07-06 15:57:00,
2013-07-06 12:02:00,73.0,70.5,30.05,SSE,159,7.0,9.0,92,0.00,,CLR,0.00,VWS V13.01,2013-07-06 16:02:00,
2013-07-06 12:07:00,73.0,70.5,30.05,SSE,155,9.0,10.0,92,0.00,,CLR,0.00,VWS V13.01,2013-07-06 16:07:00,
2013-07-06 12:12:00,73.2,70.4,30.05,SSE,148,9.0,10.0,91,0.00,,CLR,0.00,VWS V13.01,2013-07-06 16:12:00,
2013-07-06 12:17:00,73.2,70.4,30.05,SE,146,6.0,10.0,91,0.00,,CLR,0.00,VWS V13.01,2013-07-06 16:17:00,
2013-07-06 12:22:00,73.3,70.5,30.05,SSE,153,6.0,10.0,91,0.00,,CLR,0.00,VWS V13.01,2013-07-06 16:22:00,
2013-07-06 12:27:00,73.4,70.6,30.05,SSE,147,10.0,10.0,91,0.00,,CLR,0.00,VWS V13.01,2013-07-06 16:27:00,
2013-07-06 12:33:00,73.4,70.6,30.05,SSE,158,8.0,11.0,91,0.00,,CLR,0.00,VWS V13.01,2013-07-06 16:33:00,
2013-07-06 12:38:00,73.4,70.6,30.05,SSE,151,9.0,10.0,91,0.00,,CLR,0.00,VWS V13.01,2013-07-06 16:38:00,
2013-07-06 12:43:00,73.6,70.8,30.05,SSE,153,9.0,11.0,91,0.00,,CLR,0.00,VWS V13.01,2013-07-06 16:43:00,
2013-07-06 12:48:00,73.4,70.6,30.05,SSE,158,8.0,11.0,91,0.00,,CLR,0.00,VWS V13.01,2013-07-06 16:48:00,
2013-07-06 12:53:00,73.5,70.4,30.05,SSE,153,7.0,11.0,90,0.00,,CLR,0.00,VWS V13.01,2013-07-06 16:53:00,
2013-07-06 12:59:00,73.7,70.6,30.05,SSE,154,8.0,10.0,90,0.00,,CLR,0.00,VWS V13.01,2013-07-06 16:59:00,
2013-07-06 13:04:00,73.9,70.8,30.04,SSE,148,9.0,11.0,90,0.00,,CLR,0.00,VWS V13.01,2013-07-06 17:04:00,
2013-07-06 13:09:00,73.9,70.8,30.04,SSE,149,8.0,10.0,90,0.00,,CLR,0.00,VWS V13.01,2013-07-06 17:09:00,
2013-07-06 13:14:00,74.0,70.9,30.04,SE,144,8.0,11.0,90,0.00,,CLR,0.00,VWS V13.01,2013-07-06 17:14:00,
2013-07-06 13:20:00,74.1,71.0,30.04,SE,146,9.0,11.0,90,0.00,,CLR,0.00,VWS V13.01,2013-07-06 17:20:00,
2013-07-06 13:26:00,74.2,71.1,30.04,SSE,153,10.0,11.0,90,0.00,,CLR,0.00,VWS V13.01,2013-07-06 17:26:00,
2013-07-06 13:31:00,74.1,70.7,30.04,SE,146,9.0,12.0,89,0.00,,CLR,0.00,VWS V13.01,2013-07-06 17:31:00,
2013-07-06 13:36:00,74.2,71.1,30.04,SSE,156,9.0,12.0,90,0.00,,CLR,0.00,VWS V13.01,2013-07-06 17:36:00,
2013-07-06 13:41:00,74.2,70.8,30.04,SE,139,10.0,13.0,89,0.00,,CLR,0.00,VWS V13.01,2013-07-06 17:41:00,
2013-07-06 13:46:00,74.3,70.8,30.03,SE,142,9.0,11.0,89,0.00,,CLR,0.00,VWS V13.01,2013-07-06 17:46:00,
2013-07-06 13:51:00,74.4,70.9,30.03,SSE,150,10.0,11.0,89,0.00,,CLR,0.00,VWS V13.01,2013-07-06 17:51:00,
2013-07-06 13:57:00,74.5,71.1,30.03,SSE,153,10.0,11.0,89,0.00,,CLR,0.00,VWS V13.01,2013-07-06 17:57:00,
2013-07-06 14:02:00,74.6,71.2,30.03,SSE,149,11.0,12.0,89,0.00,,CLR,0.00,VWS V13.01,2013-07-06 18:02:00,
2013-07-06 14:07:00,74.7,71.2,30.02,SE,141,7.0,10.0,89,0.00,,CLR,0.00,VWS V13.01,2013-07-06 18:07:00,
2013-07-06 14:13:00,74.9,71.4,30.02,SE,137,8.0,10.0,89,0.00,,CLR,0.00,VWS V13.01,2013-07-06 18:13:00,
2013-07-06 14:18:00,75.0,71.5,30.02,SE,135,9.0,10.0,89,0.00,,CLR,0.00,VWS V13.01,2013-07-06 18:18:00,
2013-07-06 14:24:00,75.1,71.0,30.02,SE,134,7.0,11.0,87,0.00,,CLR,0.00,VWS V13.01,2013-07-06 18:24:00,
2013-07-06 14:29:00,75.3,71.2,30.02,SE,143,8.0,10.0,87,0.00,,CLR,0.00,VWS V13.01,2013-07-06 18:29:00,
2013-07-06 14:34:00,75.5,71.4,30.02,SE,143,8.0,10.0,87,0.00,,CLR,0.00,VWS V13.01,2013-07-06 18:34:00,
2013-07-06 14:39:00,75.6,71.5,30.02,SE,132,8.0,9.0,87,0.00,,CLR,0.00,VWS V13.01,2013-07-06 18:39:00,
2013-07-06 14:44:00,75.8,71.7,30.02,SE,132,8.0,10.0,87,0.00,,CLR,0.00,VWS V13.01,2013-07-06 18:44:00,
2013-07-06 14:49:00,76.2,71.4,30.01,SE,139,6.0,9.0,85,0.00,,CLR,0.00,VWS V13.01,2013-07-06 18:49:00,
2013-07-06 14:54:00,76.2,71.4,30.01,SE,140,8.0,9.0,85,0.00,,CLR,0.00,VWS V13.01,2013-07-06 18:54:00,
2013-07-06 15:00:00,76.3,71.5,30.01,ESE,123,7.0,9.0,85,0.00,,CLR,0.00,VWS V13.01,2013-07-06 19:00:00,
2013-07-06 15:05:00,76.7,71.9,30.01,ESE,120,7.0,8.0,85,0.00,,CLR,0.00,VWS V13.01,2013-07-06 19:05:00,
2013-07-06 15:10:00,77.0,71.4,30.01,SE,135,9.0,10.0,83,0.00,,CLR,0.00,VWS V13.01,2013-07-06 19:10:00,
2013-07-06 15:16:00,77.2,72.0,30.00,SE,130,8.0,9.0,84,0.00,,CLR,0.00,VWS V13.01,2013-07-06 19:16:00,
2013-07-06 15:22:00,77.3,71.4,30.00,SE,128,8.0,9.0,82,0.00,,CLR,0.00,VWS V13.01,2013-07-06 19:22:00,
2013-07-06 15:27:00,77.4,71.5,30.00,SE,130,7.0,9.0,82,0.00,,CLR,0.00,VWS V13.01,2013-07-06 19:27:00,
2013-07-06 15:33:00,77.6,71.7,30.00,SE,127,9.0,10.0,82,0.00,,CLR,0.00,VWS V13.01,2013-07-06 19:33:00,
2013-07-06 15:38:00,77.6,71.7,30.00,SE,128,9.0,10.0,82,0.00,,CLR,0.00,VWS V13.01,2013-07-06 19:38:00,
2013-07-06 15:44:00,77.5,71.9,30.00,SE,130,7.0,9.0,83,0.00,,CLR,0.00,VWS V13.01,2013-07-06 19:44:00,
2013-07-06 15:49:00,77.3,71.7,30.00,SE,130,8.0,9.0,83,0.00,,CLR,0.00,VWS V13.01,2013-07-06 19:49:00,
2013-07-06 15:54:00,77.7,72.1,30.00,SE,135,5.0,9.0,83,0.00,,CLR,0.00,VWS V13.01,2013-07-06 19:54:00,
2013-07-06 15:59:00,77.6,71.7,30.00,ESE,122,5.0,8.0,82,0.00,,CLR,0.00,VWS V13.01,2013-07-06 19:59:00,
2013-07-06 16:04:00,77.5,71.6,30.00,SE,135,8.0,8.0,82,0.00,,CLR,0.00,VWS V13.01,2013-07-06 20:04:00,
2013-07-06 16:10:00,77.6,72.0,30.00,SE,128,6.0,9.0,83,0.00,,CLR,0.00,VWS V13.01,2013-07-06 20:10:00,
2013-07-06 16:17:00,77.4,71.8,29.99,SE,138,7.0,9.0,83,0.00,,CLR,0.00,VWS V13.01,2013-07-06 20:17:00,
2013-07-06 16:22:00,77.3,71.7,29.99,SE,137,7.0,8.0,83,0.00,,CLR,0.00,VWS V13.01,2013-07-06 20:22:00,
2013-07-06 16:27:00,77.3,72.1,29.99,SE,131,7.0,9.0,84,0.00,,CLR,0.00,VWS V13.01,2013-07-06 20:27:00,
2013-07-06 16:33:00,77.6,71.7,29.99,SE,134,7.0,9.0,82,0.00,,CLR,0.00,VWS V13.01,2013-07-06 20:33:00,
2013-07-06 16:38:00,77.8,72.2,29.99,SE,135,7.0,9.0,83,0.00,,CLR,0.00,VWS V13.01,2013-07-06 20:38:00,
2013-07-06 16:43:00,77.9,72.0,29.98,SE,135,7.0,9.0,82,0.00,,CLR,0.00,VWS V13.01,2013-07-06 20:43:00,
2013-07-06 16:49:00,78.0,72.4,29.98,SE,131,6.0,9.0,83,0.00,,CLR,0.00,VWS V13.01,2013-07-06 20:49:00,
2013-07-06 16:54:00,78.0,72.4,29.98,SE,129,7.0,8.0,83,0.00,,CLR,0.00,VWS V13.01,2013-07-06 20:54:00,
2013-07-06 16:59:00,77.9,72.0,29.98,SE,134,6.0,8.0,82,0.00,,CLR,0.00,VWS V13.01,2013-07-06 20:59:00,
2013-07-06 17:04:00,77.9,72.0,29.98,SE,134,6.0,9.0,82,0.00,,CLR,0.00,VWS V13.01,2013-07-06 21:04:00,
2013-07-06 17:09:00,77.9,72.3,29.98,SE,130,7.0,8.0,83,0.00,,CLR,0.00,VWS V13.01,2013-07-06 21:09:00,
2013-07-06 17:15:00,78.0,72.1,29.98,SE,135,7.0,10.0,82,0.00,,CLR,0.00,VWS V13.01,2013-07-06 21:15:00,
2013-07-06 17:20:00,78.3,72.7,29.97,SE,127,8.0,11.0,83,0.00,,CLR,0.00,VWS V13.01,2013-07-06 21:20:00,
2013-07-06 17:25:00,78.4,71.7,29.97,ESE,123,9.0,11.0,80,0.00,,CLR,0.00,VWS V13.01,2013-07-06 21:25:00,
2013-07-06 17:30:00,78.7,72.0,29.97,ESE,121,9.0,10.0,80,0.00,,CLR,0.00,VWS V13.01,2013-07-06 21:30:00,
2013-07-06 17:35:00,78.5,72.6,29.97,ESE,111,9.0,11.0,82,0.00,,CLR,0.00,VWS V13.01,2013-07-06 21:35:00,
2013-07-06 17:41:00,78.1,72.2,29.97,ESE,119,8.0,10.0,82,0.00,,CLR,0.00,VWS V13.01,2013-07-06 21:41:00,
2013-07-06 17:47:00,78.2,73.0,29.97,ESE,112,9.0,11.0,84,0.00,,CLR,0.00,VWS V13.01,2013-07-06 21:47:00,
2013-07-06 17:52:00,77.8,72.6,29.96,ESE,115,8.0,10.0,84,0.00,,CLR,0.00,VWS V13.01,2013-07-06 21:52:00,
2013-07-06 17:58:00,77.5,72.3,29.96,ESE,107,8.0,10.0,84,0.00,,CLR,0.00,VWS V13.01,2013-07-06 21:58:00,
2013-07-06 18:03:00,77.2,72.3,29.96,East,91,8.0,10.0,85,0.00,,FEW080,0.00,VWS V13.01,2013-07-06 22:03:00,
2013-07-06 18:08:00,77.0,72.2,29.96,East,89,10.0,10.0,85,0.00,,FEW080,0.00,VWS V13.01,2013-07-06 22:08:00,
2013-07-06 18:13:00,76.7,72.2,29.96,East,94,8.0,11.0,86,0.00,,FEW080,0.00,VWS V13.01,2013-07-06 22:13:00,
2013-07-06 18:19:00,76.5,72.3,29.96,East,99,7.0,10.0,87,0.00,,FEW080,0.00,VWS V13.01,2013-07-06 22:19:00,
2013-07-06 18:24:00,76.5,72.3,29.95,East,98,7.0,7.0,87,0.00,,FEW080,0.00,VWS V13.01,2013-07-06 22:24:00,
2013-07-06 18:29:00,76.6,72.8,29.95,ESE,105,8.0,9.0,88,0.00,,FEW080,0.00,VWS V13.01,2013-07-06 22:29:00,
2013-07-06 18:35:00,76.6,72.4,29.95,ESE,105,7.0,9.0,87,0.00,,FEW080,0.00,VWS V13.01,2013-07-06 22:35:00,
2013-07-06 18:40:00,76.5,71.7,29.95,East,93,7.0,9.0,85,0.00,,FEW080,0.00,VWS V13.01,2013-07-06 22:40:00,
2013-07-06 18:45:00,76.6,72.1,29.95,East,96,7.0,8.0,86,0.00,,FEW080,0.00,VWS V13.01,2013-07-06 22:45:00,
2013-07-06 18:51:00,76.7,71.5,29.95,East,91,6.0,8.0,84,0.00,,FEW080,0.00,VWS V13.01,2013-07-06 22:51:00,
2013-07-06 18:56:00,76.8,71.9,29.95,ESE,103,8.0,8.0,85,0.00,,FEW080,0.00,VWS V13.01,2013-07-06 22:56:00,
2013-07-06 19:01:00,76.6,71.4,29.94,East,87,3.0,8.0,84,0.00,,FEW080,0.00,VWS V13.01,2013-07-06 23:01:00,
2013-07-06 19:07:00,76.6,71.8,29.94,East,86,5.0,7.0,85,0.00,,FEW080,0.00,VWS V13.01,2013-07-06 23:07:00,
2013-07-06 19:12:00,76.6,71.4,29.94,East,80,6.0,8.0,84,0.00,,FEW080,0.00,VWS V13.01,2013-07-06 23:12:00,
2013-07-06 19:17:00,76.7,71.5,29.94,East,99,6.0,7.0,84,0.00,,FEW080,0.00,VWS V13.01,2013-07-06 23:17:00,
2013-07-06 19:22:00,76.7,71.2,29.93,East,101,5.0,7.0,83,0.00,,FEW080,0.00,VWS V13.01,2013-07-06 23:22:00,
2013-07-06 19:27:00,76.9,71.0,29.93,East,95,3.0,6.0,82,0.00,,FEW080,0.00,VWS V13.01,2013-07-06 23:27:00,
2013-07-06 19:32:00,77.1,71.2,29.93,East,98,5.0,6.0,82,0.00,,FEW080,0.00,VWS V13.01,2013-07-06 23:32:00,
2013-07-06 19:38:00,77.1,71.5,29.93,ESE,114,8.0,8.0,83,0.00,,FEW080,0.00,VWS V13.01,2013-07-06 23:38:00,
2013-07-06 19:43:00,76.6,71.8,29.93,East,98,3.0,8.0,85,0.00,,FEW080,0.00,VWS V13.01,2013-07-06 23:43:00,
2013-07-06 19:49:00,76.3,71.5,29.94,East,97,5.0,6.0,85,0.00,,FEW080,0.00,VWS V13.01,2013-07-06 23:49:00,
2013-07-06 19:54:00,76.2,71.4,29.94,East,94,5.0,6.0,85,0.00,,FEW080,0.00,VWS V13.01,2013-07-06 23:54:00,
2013-07-06 19:59:00,76.0,70.8,29.93,East,90,3.0,5.0,84,0.00,,FEW080,0.00,VWS V13.01,2013-07-06 23:59:00,
2013-07-06 20:04:00,75.9,71.1,29.93,East,92,3.0,5.0,85,0.00,,CLR,0.00,VWS V13.01,2013-07-07 00:04:00,
2013-07-06 20:10:00,75.7,70.9,29.94,East,93,3.0,6.0,85,0.00,,CLR,0.00,VWS V13.01,2013-07-07 00:10:00,
2013-07-06 20:15:00,75.6,71.1,29.93,East,94,3.0,6.0,86,0.00,,CLR,0.00,VWS V13.01,2013-07-07 00:15:00,
2013-07-06 20:21:00,75.4,70.9,29.93,East,94,3.0,5.0,86,0.00,,CLR,0.00,VWS V13.01,2013-07-07 00:21:00,
2013-07-06 20:27:00,75.5,71.4,29.93,East,96,5.0,6.0,87,0.00,,CLR,0.00,VWS V13.01,2013-07-07 00:27:00,
2013-07-06 20:32:00,75.5,71.0,29.94,East,92,3.0,6.0,86,0.00,,CLR,0.00,VWS V13.01,2013-07-07 00:32:00,
2013-07-06 20:38:00,75.3,70.8,29.94,ENE,63,1.0,6.0,86,0.00,,CLR,0.00,VWS V13.01,2013-07-07 00:38:00,
2013-07-06 20:43:00,75.1,70.6,29.94,East,95,2.0,6.0,86,0.00,,CLR,0.00,VWS V13.01,2013-07-07 00:43:00,
2013-07-06 20:48:00,75.1,71.3,29.94,East,94,7.0,8.0,88,0.00,,CLR,0.00,VWS V13.01,2013-07-07 00:48:00,
2013-07-06 20:55:00,75.0,70.5,29.94,East,84,6.0,8.0,86,0.00,,CLR,0.00,VWS V13.01,2013-07-07 00:55:00,
2013-07-06 21:00:00,74.8,70.7,29.94,East,97,2.0,6.0,87,0.00,,CLR,0.00,VWS V13.01,2013-07-07 01:00:00,
2013-07-06 21:05:00,74.8,70.3,29.94,East,95,3.0,6.0,86,0.00,,CLR,0.00,VWS V13.01,2013-07-07 01:05:00,
2013-07-06 21:10:00,74.9,70.8,29.94,East,98,5.0,6.0,87,0.00,,CLR,0.00,VWS V13.01,2013-07-07 01:10:00,
2013-07-06 21:16:00,74.9,70.8,29.94,East,92,2.0,5.0,87,0.00,,CLR,0.00,VWS V13.01,2013-07-07 01:16:00,
2013-07-06 21:21:00,75.0,71.2,29.94,ESE,102,4.0,6.0,88,0.00,,CLR,0.00,VWS V13.01,2013-07-07 01:21:00,
2013-07-06 21:26:00,75.2,71.4,29.94,ESE,111,5.0,7.0,88,0.00,,CLR,0.00,VWS V13.01,2013-07-07 01:26:00,
2013-07-06 21:31:00,75.5,71.7,29.95,ESE,117,9.0,11.0,88,0.00,,CLR,0.00,VWS V13.01,2013-07-07 01:31:00,
2013-07-06 21:36:00,75.8,72.0,29.95,ESE,115,7.0,11.0,88,0.00,,CLR,0.00,VWS V13.01,2013-07-07 01:36:00,
2013-07-06 21:41:00,75.7,71.9,29.95,SE,125,4.0,8.0,88,0.00,,CLR,0.00,VWS V13.01,2013-07-07 01:41:00,
2013-07-06 21:46:00,75.6,72.1,29.96,ESE,122,8.0,9.0,89,0.00,,CLR,0.00,VWS V13.01,2013-07-07 01:46:00,
2013-07-06 21:51:00,75.6,72.1,29.96,SE,125,9.0,11.0,89,0.00,,CLR,0.00,VWS V13.01,2013-07-07 01:51:00,
2013-07-06 21:57:00,75.4,71.9,29.96,SE,141,12.0,12.0,89,0.00,,CLR,0.00,VWS V13.01,2013-07-07 01:57:00,
2013-07-06 22:04:00,75.1,71.6,29.97,SE,142,10.0,13.0,89,0.00,,FEW075,0.00,VWS V13.01,2013-07-07 02:04:00,
2013-07-06 22:09:00,74.9,71.8,29.97,SSE,148,10.0,11.0,90,0.00,,FEW075,0.00,VWS V13.01,2013-07-07 02:09:00,
2013-07-06 22:14:00,74.9,71.8,29.97,SE,141,7.0,10.0,90,0.00,,FEW075,0.00,VWS V13.01,2013-07-07 02:14:00,
2013-07-06 22:19:00,74.8,71.7,29.96,SE,137,7.0,10.0,90,0.00,,FEW075,0.00,VWS V13.01,2013-07-07 02:19:00,
2013-07-06 22:24:00,74.8,71.7,29.97,SE,132,9.0,10.0,90,0.00,,FEW075,0.00,VWS V13.01,2013-07-07 02:24:00,
2013-07-06 22:30:00,74.8,71.7,29.96,SE,134,7.0,9.0,90,0.00,,FEW075,0.00,VWS V13.01,2013-07-07 02:30:00,
2013-07-06 22:36:00,74.7,71.2,29.97,SE,134,7.0,9.0,89,0.00,,FEW075,0.00,VWS V13.01,2013-07-07 02:36:00,
2013-07-06 22:41:00,74.7,71.2,29.97,SE,130,7.0,9.0,89,0.00,,FEW075,0.00,VWS V13.01,2013-07-07 02:41:00,
2013-07-06 22:47:00,74.6,71.5,29.97,SE,127,4.0,8.0,90,0.00,,FEW075,0.00,VWS V13.01,2013-07-07 02:47:00,
2013-07-06 22:53:00,74.5,71.4,29.96,SE,132,4.0,8.0,90,0.00,,FEW075,0.00,VWS V13.01,2013-07-07 02:53:00,
2013-07-06 22:58:00,74.4,71.3,29.96,SE,139,6.0,7.0,90,0.00,,FEW075,0.00,VWS V13.01,2013-07-07 02:58:00,
2013-07-06 23:03:00,74.4,71.6,29.96,SE,141,5.0,8.0,91,0.00,,CLR,0.00,VWS V13.01,2013-07-07 03:03:00,
2013-07-06 23:09:00,74.3,71.5,29.96,SSE,156,4.0,7.0,91,0.00,,CLR,0.00,VWS V13.01,2013-07-07 03:09:00,
2013-07-06 23:14:00,74.2,71.4,29.96,South,182,5.0,6.0,91,0.00,,CLR,0.00,VWS V13.01,2013-07-07 03:14:00,
2013-07-06 23:21:00,74.1,71.6,29.96,SSW,200,2.0,5.0,92,0.00,,CLR,0.00,VWS V13.01,2013-07-07 03:21:00,
2013-07-06 23:26:00,74.1,71.6,29.96,SSW,200,1.0,3.0,92,0.00,,CLR,0.00,VWS V13.01,2013-07-07 03:26:00,
2013-07-06 23:31:00,73.9,71.4,29.97,SSW,200,2.0,3.0,92,0.00,,CLR,0.00,VWS V13.01,2013-07-07 03:31:00,
2013-07-06 23:37:00,73.8,71.3,29.96,SSW,200,3.0,4.0,92,0.00,,CLR,0.00,VWS V13.01,2013-07-07 03:37:00,
2013-07-06 23:42:00,73.6,71.1,29.96,SSW,200,2.0,3.0,92,0.00,,CLR,0.00,VWS V13.01,2013-07-07 03:42:00,
2013-07-06 23:47:00,73.5,71.4,29.96,SSW,200,3.0,3.0,93,0.00,,CLR,0.00,VWS V13.01,2013-07-07 03:47:00,
2013-07-06 23:53:00,73.5,71.4,29.97,SSW,202,2.0,3.0,93,0.00,,CLR,0.00,VWS V13.01,2013-07-07 03:53:00,